SCP
0 0 -0 0 0 0 0 0 0 0 0 0 0 0 0 0 0 0 0 0 0 0 0 0 0 0 0 0 0 0 0 0 0 0 -0 0 0 0 0 0 0 0 0 0
0 0 -0 -0 0 0 0 0 0 0 0 0 0 0 0 0 0 0 0 0 0 0 0 0 0 0 0 0 0 0 0 0 0 0 0 -0 0 0 0 0 0 0 0 0
0 0 0 -0 0 0 0 0 0 0 0 0 0 0 0 0 0 0 0 0 0 0 0 0 0 0 0 0 0 0 0 0 0 0 0 0 0 0 0 0 0 0 0 0
0 0 -0 -0 0 0 0 -0 0 0 0 0 0 0 0 0 0 0 0 0 0 0 0 0 0 0 0 0 0 0 0 0 0 0 0 -0 -0 0 0 0 0 0 0 0
0 -0 -0 -0 -0 0 0 0 0 0 0 0 0 0 0 0 0 0 0 0 0 0 0 0 0 0 0 0 0 0 0 0 0 0 0 -0 -0 0 0 0 0 0 0 0
0 -0 -0 -0 -0 -0 0 0 0 0 0 0 0 0 0 0 0 0 0 0 -0 0 0 0 0 0 0 0 0 0 0 0 0 -0 0 0 0 -0 -0 0 -0 0 0 -0
0 -0 -0 -0 -0 -0 0 0 0 0 -0 0 0 0 0 0 0 0 0 0 0 0 0 0 0 0 0 0 0 0 0 0 -0 -0 0 0 0 0 0 0 0 0 0 0
0 0 -0 -0 -0 -0 0 0 0 0 0 0 0 0 0 0 0 0 0 0 -0 0 0 0 0 0 0 0 0 0 0 0 0 0 -0 0 0 0 0 0 0 0 0 0
0 0 0 -0 -0 -0 0 0 0 0 0 0 0 0 0 0 0 0 0 0 0 0 0 0 0 0 0 0 0 0 0 0 0 0 0 -0 -0 0 0 0 0 0 0 0
-0 0 -0 -0 -0 -0 -0 0 0 0 0 -0 0 0 0 0 0 0 0 0 0 0 0 0 0 0 0 0 0 0 0 0 0 0 0 0 0 0 0 0 0 0 0 0
-0 0 -0 -0 -0 -0 -0 0 0 0 0 -0 0 0 0 0 0 0 0 0 0 0 0 0 0 0 0 0 0 0 0 0 0 0 0 0 0 0 0 0 0 0 0 0
0 0 0 -0 -0 -0 -0 0 0 0 0 0 0 -0 0 0 0 0 0 0 -0 0 0 0 0 0 0 0 -0 0 0 0 0 0 0 0 0 0 0 0 0 0 0 0
0 0 0 0 -0 -0 -0 0 0 0 0 -0 -0 -0 0 0 0 0 0 -0 -0 0 0 0 0 0 -0 -0 0 0 -0 0 0 0 0 0 0 0 0 0 0 0 0 0
0 0 0 0 0 0 -0 0 0 0 0 0 -0 -0 -0 0 -0 0 0 -0 -0 -0 -0 -0 -0 -0 0 0 0 0 0 0 0 0 0 0 0 0 0 0 0 0 0 0
0 0 0 0 0 0 0 0 0 0 0 0 0 0 0 0 0 -0 0 -0 0 0 -0 -0 -0 0 0 0 0 0 0 -0 0 0 0 0 0 0 0 0 0 0 0 0
0 0 0 0 0 0 0 0 0 0 0 0 0 0 0 0 0 0 0 0 0 0 -0 -0 -0 -0 0 0 0 0 0 0 0 0 0 0 0 -0 0 0 0 0 0 0
0 0 0 0 0 0 0 0 0 0 0 0 -0 -0 0 0 0 0 0 0 0 0 0 0 0 0 0 0 0 0 0 0 0 0 -0 0 0 0 0 0 0 0 0 0
-0 0 0 0 0 0 0 0 0 0 0 0 -0 -0 0 0 0 0 0 0 0 0 0 0 0 0 0 0 0 0 0 0 0 0 0 0 0 0 0 0 0 0 0 0
0 0 0 0 0 0 0 0 -0 0 0 0 -0 0 0 0 0 0 0 0 0 0 0 0 0 0 0 0 0 0 0 0 0 0 0 0 0 0 0 0 0 0 0 0
-0 0 0 0 0 0 0 0 0 0 0 0 0 -0 0 0 0 0 0 0 0 0 0 0 0 0 0 0 0 0 0 0 0 0 0 0 0 0 0 0 0 0 0 0
0 0 0 0 0 0 0 0 0 0 -0 -0 -0 0 0 0 0 0 0 0 0 0 0 0 0 0 0 0 0 0 0 0 0 0 0 0 0 0 0 0 0 0 0 0
0 0 0 0 0 0 0 0 0 0 0 0 0 0 0 0 0 0 0 0 0 0 0 0 0 0 0 0 0 0 0 0 0 0 0 0 0 0 0 0 0 0 0 0
0 0 0 0 0 0 0 0 0 0 0 0 0 0 0 0 0 0 0 0 0 0 0 0 0 0 0 0 0 0 0 0 0 0 0 0 0 0 0 0 0 0 0 0
0 0 0 0 0 0 0 0 0 0 0 0 0 0 0 0 0 0 0 0 0 0 0 0 0 0 0 0 0 0 0 0 0 0 0 0 0 0 0 0 0 0 0 0
0 0 0 0 0 0 0 0 0 0 0 0 0 0 0 0 0 0 0 0 0 0 0 0 0 0 0 0 0 0 0 0 0 0 0 0 0 0 0 0 0 0 0 0
0 0 0 0 0 0 0 0 0 0 0 0 0 0 0 0 0 0 -0 0 0 0 0 0 0 0 0 0 0 0 0 0 0 0 0 0 0 0 0 0 0 0 0 0
0 0 0 0 0 0 0 0 0 0 0 0 0 0 0 -0 0 0 0 -0 0 0 0 0 0 0 0 0 0 0 0 0 0 0 0 0 0 0 0 0 0 0 0 0
Wind_Speed_500mb
42 37 40 33 25 19 20 17 6 14 19 18 9 8 11 11 22 40 14 6 8 14 18 12 10 9 5 9 12 8 10 5 14 32 21 16 15 23 14 5 10 7 1 7
42 37 36 32 27 24 18 9 19 26 25 12 10 8 16 32 34 29 15 12 7 14 11 8 8 18 8 6 5 5 9 5 6 11 5 15 18 28 27 20 3 9 3 3
40 38 33 32 29 24 25 10 5 14 24 12 9 16 18 26 32 28 36 25 27 16 12 11 9 4 7 17 12 9 4 7 8 7 8 4 12 14 37 28 6 7 8 13
39 38 35 34 31 27 27 12 8 10 4 12 13 11 6 16 28 26 27 10 18 19 17 14 11 13 12 13 20 9 6 5 17 21 16 13 3 21 6 24 20 11 0 19
39 36 37 36 32 32 35 8 7 14 16 21 11 13 8 20 24 20 20 23 18 17 20 16 8 10 14 4 10 7 0 6 11 16 22 15 22 29 5 3 9 21 23 24
29 27 34 39 42 43 33 31 44 18 11 9 5 7 13 18 20 23 29 21 14 24 22 8 5 12 10 11 5 6 9 5 7 6 18 27 11 19 25 22 31 21 19 23
33 31 29 41 50 55 55 35 28 10 8 6 9 18 21 21 18 17 18 15 10 8 26 20 5 3 30 19 16 18 7 10 5 8 13 7 8 11 7 5 19 10 24 19
39 38 37 37 46 59 62 57 34 14 6 14 21 23 20 32 33 10 11 26 10 23 21 8 1 5 7 18 29 23 20 10 5 5 6 11 29 8 7 4 15 21 23 19
47 43 40 44 42 56 64 67 57 32 6 14 32 23 26 14 9 5 8 15 8 8 5 3 6 8 12 8 8 36 25 14 9 4 8 10 11 4 20 3 9 14 24 23
44 48 47 48 49 51 72 68 70 44 26 43 26 8 10 14 10 4 12 5 7 12 7 4 6 8 6 7 9 5 19 10 21 14 6 12 10 14 19 8 7 21 35 33
38 41 47 53 54 55 58 85 71 75 32 47 27 31 28 20 22 2 9 7 3 2 5 6 8 2 7 7 18 9 14 15 9 8 7 12 27 12 8 12 35 39 47 46
39 41 41 45 57 61 62 64 83 69 52 14 18 54 59 46 27 12 10 4 5 8 2 3 5 3 5 10 7 10 5 11 9 11 11 19 43 37 49 46 47 44 49 41
43 42 45 44 48 58 61 79 59 67 44 42 63 73 36 31 33 33 9 5 2 5 18 8 5 6 3 3 8 7 5 20 3 6 20 25 44 48 41 45 49 47 36 34
53 53 49 49 48 51 47 84 66 80 22 9 20 25 45 65 37 24 40 31 12 9 6 5 4 4 6 5 7 7 6 5 9 9 22 39 34 28 29 43 35 36 32 25
61 58 53 52 48 47 37 83 78 79 52 14 14 31 37 20 36 49 22 31 22 6 2 4 5 8 7 7 3 7 16 10 5 6 17 27 25 28 26 27 27 20 9 15
58 58 58 57 54 51 58 19 73 81 85 7 6 8 17 43 32 49 44 21 22 10 8 7 9 17 12 4 5 17 33 37 42 9 15 35 32 28 24 20 18 15 15 16
56 64 60 62 57 65 47 19 17 85 74 11 7 8 3 34 31 36 36 27 13 10 7 9 8 9 6 4 5 18 29 28 34 41 14 32 29 21 20 20 20 20 17 19
45 60 62 61 54 57 45 14 11 65 39 14 4 5 9 38 15 11 21 17 15 13 7 7 6 3 9 7 14 21 26 21 34 33 28 25 19 19 23 12 10 19 20 14
55 65 65 64 55 21 30 24 47 60 14 16 9 6 5 31 12 10 11 12 4 9 6 6 3 6 9 10 19 26 31 25 25 23 27 25 27 24 18 17 18 16 15 14
64 71 28 14 33 60 86 35 12 17 8 10 5 6 3 8 9 6 10 10 6 6 10 10 6 6 19 21 24 28 29 28 26 27 30 27 25 23 21 21 19 16 13 11
44 9 12 83 82 18 10 11 9 9 5 13 12 13 4 3 4 4 5 5 5 4 5 6 5 5 8 24 28 24 22 24 22 19 15 15 18 17 17 19 19 16 14 16
35 58 52 30 8 9 7 7 8 7 7 6 6 7 9 5 5 4 7 4 1 3 6 5 5 6 21 25 22 19 18 16 16 14 14 14 21 16 16 19 21 21 22 22
53 21 10 5 5 4 7 10 5 6 4 8 10 6 6 4 5 5 3 5 5 4 6 5 5 18 18 16 15 17 15 13 13 14 15 15 12 11 12 18 18 19 24 24
12 7 10 7 7 7 5 5 5 7 10 22 29 12 4 4 5 3 5 2 1 1 6 4 6 21 17 14 14 15 18 18 19 20 19 21 24 25 25 25 24 26 32 31
12 12 8 6 2 9 7 13 12 12 16 15 17 12 6 4 5 3 5 3 7 8 4 4 21 15 12 13 11 13 14 14 16 16 19 20 21 23 28 26 27 27 27 26
11 16 7 8 11 14 22 23 18 11 11 10 5 6 6 6 4 8 8 5 5 3 7 27 19 17 14 14 13 14 14 16 18 18 19 20 22 25 27 24 22 22 21 21
9 9 23 20 22 20 19 17 18 14 9 5 6 7 2 3 6 6 7 4 6 24 28 26 19 18 18 18 18 18 16 16 16 16 17 20 21 21 20 20 18 15 15 14
Wind_Direction_500mb
286 286 276 275 269 265 252 252 241 293 236 180 202 219 222 302 301 317 309 312 304 303 329 333 356 132 73 78 356 16 15 269 258 254 223 205 231 263 196 210 187 191 18 272
284 277 275 265 258 242 242 249 262 278 196 202 224 224 256 262 282 289 297 316 237 289 309 335 333 55 113 115 67 86 342 271 268 311 176 210 223 208 225 226 43 235 276 192
281 269 262 258 249 231 232 264 270 219 213 277 278 218 234 246 262 268 270 286 310 303 280 293 279 136 275 207 177 177 103 256 311 296 284 357 307 278 214 219 196 209 242 293
281 263 252 247 238 226 214 209 266 277 261 198 222 253 279 273 255 255 267 280 282 290 291 287 292 314 285 238 177 176 157 272 310 316 312 166 176 293 266 232 216 210 82 263
294 252 240 236 235 216 216 216 244 300 277 286 317 221 261 262 256 259 293 285 279 284 271 264 295 7 5 43 310 286 136 284 303 294 277 250 221 204 237 19 289 241 262 304
281 266 243 226 221 212 210 232 242 311 274 308 298 235 263 272 251 276 277 278 318 315 320 88 40 351 275 215 285 323 317 302 354 286 345 319 300 205 193 188 203 204 189 222
269 268 260 229 218 220 219 215 219 235 277 266 262 300 295 281 263 262 292 294 157 265 324 308 256 268 271 249 228 223 245 312 266 260 314 266 246 300 188 347 33 255 90 63
272 262 255 244 223 218 223 219 207 211 262 264 284 284 277 285 296 304 308 293 230 250 255 275 291 259 268 243 241 231 203 205 269 230 228 285 305 328 41 19 51 62 81 61
267 257 246 238 232 220 222 225 218 226 282 244 254 285 319 328 323 338 264 303 195 84 86 242 188 229 210 240 249 214 200 191 196 299 238 231 234 356 338 203 88 87 80 66
261 253 243 237 234 229 217 225 216 221 243 257 268 268 333 337 352 290 305 298 47 200 180 163 200 241 278 249 257 166 187 183 219 227 244 287 274 318 342 206 128 79 70 66
262 253 245 236 231 227 226 216 217 211 233 249 251 252 283 308 352 140 345 11 65 119 152 205 225 254 264 284 207 276 169 179 191 200 220 250 327 345 51 122 69 71 63 56
263 252 245 235 228 224 223 211 215 213 221 249 254 258 261 262 275 305 325 293 106 294 323 331 331 330 304 26 305 192 224 182 173 160 205 45 38 51 63 82 79 70 69 61
265 256 243 237 229 223 222 215 209 198 219 251 254 251 238 240 245 259 229 257 148 336 7 353 293 278 2 272 272 98 319 316 122 61 57 70 54 59 65 81 64 69 65 60
260 252 243 231 227 215 223 203 201 196 183 238 271 277 250 245 221 233 254 260 272 284 316 221 260 269 327 281 323 352 333 58 334 76 94 84 65 42 50 53 56 60 68 64
256 243 234 220 214 203 206 212 209 205 179 200 247 261 240 248 222 222 234 229 236 213 74 285 253 258 276 224 104 35 20 354 337 77 338 91 82 68 47 53 42 42 60 62
246 230 220 207 201 197 183 157 204 217 197 328 317 284 261 216 217 208 216 236 219 184 153 247 257 250 256 351 79 23 33 51 47 49 32 94 86 65 54 64 62 58 54 53
234 209 201 192 190 194 185 172 215 207 191 202 298 278 221 194 179 202 205 215 213 185 210 233 245 262 5 26 70 21 13 40 35 28 109 62 62 71 64 80 67 91 61 56
170 173 176 172 180 187 187 169 139 174 166 160 232 232 311 175 148 143 193 176 179 204 217 247 251 191 66 78 54 40 23 18 33 30 66 68 81 64 50 53 68 65 59 44
145 148 152 154 162 147 156 141 157 157 143 171 194 194 209 173 127 133 130 162 164 190 215 224 252 42 51 45 38 38 31 25 12 18 37 41 46 40 42 47 48 60 60 57
136 140 129 109 128 129 124 132 122 174 225 220 210 151 297 168 123 126 131 176 180 191 216 173 76 80 69 57 53 46 35 29 26 34 25 22 30 33 68 59 45 44 50 51
132 110 92 133 127 127 111 118 142 163 203 205 187 185 140 77 138 119 149 183 169 208 196 178 90 91 66 67 58 43 29 39 46 52 44 40 43 59 62 45 42 47 61 71
124 123 124 113 95 78 105 143 155 184 185 77 109 132 121 90 94 102 166 161 101 246 130 93 82 79 65 60 56 27 29 32 33 29 29 37 69 63 66 73 74 70 81 96
119 105 73 61 35 138 136 155 161 117 81 143 146 106 84 97 81 90 115 175 199 329 53 67 59 87 71 59 51 36 34 42 43 51 47 51 83 80 75 88 86 91 98 100
74 74 48 27 40 55 8 18 71 96 101 109 110 92 98 85 70 348 89 287 245 339 86 85 90 92 82 62 53 52 57 53 60 64 77 78 81 85 87 93 103 109 106 106
56 33 62 66 131 65 85 76 79 75 101 116 111 87 86 39 77 23 103 132 68 38 80 87 108 105 95 83 64 55 57 59 67 73 81 84 90 95 96 97 103 106 108 105
56 41 53 77 85 36 39 60 64 84 92 101 83 105 73 34 47 51 18 3 57 75 100 126 131 117 116 109 108 101 90 79 81 82 89 93 95 98 101 106 105 105 102 97
56 37 38 64 74 61 46 43 19 61 57 51 47 61 72 164 74 61 14 61 120 117 109 114 113 113 112 109 101 92 89 93 95 90 86 88 91 95 100 97 91 84 80 78
Wind_Speed_850mb
42 37 40 33 25 19 20 17 6 14 19 18 9 8 11 11 22 40 14 6 8 14 18 12 10 9 5 9 12 8 10 5 14 32 21 16 15 23 14 5 10 7 1 7
42 37 36 32 27 24 18 9 19 26 25 12 10 8 16 32 34 29 15 12 7 14 11 8 8 18 8 6 5 5 9 5 6 11 5 15 18 28 27 20 3 9 3 3
40 38 33 32 29 24 25 10 5 14 24 12 9 16 18 26 32 28 36 25 27 16 12 11 9 4 7 17 12 9 4 7 8 7 8 4 12 14 37 28 6 7 8 13
39 38 35 34 31 27 27 12 8 10 4 12 13 11 6 16 28 26 27 10 18 19 17 14 11 13 12 13 20 9 6 5 17 21 16 13 3 21 6 24 20 11 0 19
39 36 37 36 32 32 35 8 7 14 16 21 11 13 8 20 24 20 20 23 18 17 20 16 8 10 14 4 10 7 0 6 11 16 22 15 22 29 5 3 9 21 23 24
29 27 34 39 42 43 33 31 44 18 11 9 5 7 13 18 20 23 29 21 14 24 22 8 5 12 10 11 5 6 9 5 7 6 18 27 11 19 25 22 31 21 19 23
33 31 29 41 50 55 55 35 28 10 8 6 9 18 21 21 18 17 18 15 10 8 26 20 5 3 30 19 16 18 7 10 5 8 13 7 8 11 7 5 19 10 24 19
39 38 37 37 46 59 62 57 34 14 6 14 21 23 20 32 33 10 11 26 10 23 21 8 1 5 7 18 29 23 20 10 5 5 6 11 29 8 7 4 15 21 23 19
47 43 40 44 42 56 64 67 57 32 6 14 32 23 26 14 9 5 8 15 8 8 5 3 6 8 12 8 8 36 25 14 9 4 8 10 11 4 20 3 9 14 24 23
44 48 47 48 49 51 72 68 70 44 26 43 26 8 10 14 10 4 12 5 7 12 7 4 6 8 6 7 9 5 19 10 21 14 6 12 10 14 19 8 7 21 35 33
38 41 47 53 54 55 58 85 71 75 32 47 27 31 28 20 22 2 9 7 3 2 5 6 8 2 7 7 18 9 14 15 9 8 7 12 27 12 8 12 35 39 47 46
39 41 41 45 57 61 62 64 83 69 52 14 18 54 59 46 27 12 10 4 5 8 2 3 5 3 5 10 7 10 5 11 9 11 11 19 43 37 49 46 47 44 49 41
43 42 45 44 48 58 61 79 59 67 44 42 63 73 36 31 33 33 9 5 2 5 18 8 5 6 3 3 8 7 5 20 3 6 20 25 44 48 41 45 49 47 36 34
53 53 49 49 48 51 47 84 66 80 22 9 20 25 45 65 37 24 40 31 12 9 6 5 4 4 6 5 7 7 6 5 9 9 22 39 34 28 29 43 35 36 32 25
61 58 53 52 48 47 37 83 78 79 52 14 14 31 37 20 36 49 22 31 22 6 2 4 5 8 7 7 3 7 16 10 5 6 17 27 25 28 26 27 27 20 9 15
58 58 58 57 54 51 58 19 73 81 85 7 6 8 17 43 32 49 44 21 22 10 8 7 9 17 12 4 5 17 33 37 42 9 15 35 32 28 24 20 18 15 15 16
56 64 60 62 57 65 47 19 17 85 74 11 7 8 3 34 31 36 36 27 13 10 7 9 8 9 6 4 5 18 29 28 34 41 14 32 29 21 20 20 20 20 17 19
45 60 62 61 54 57 45 14 11 65 39 14 4 5 9 38 15 11 21 17 15 13 7 7 6 3 9 7 14 21 26 21 34 33 28 25 19 19 23 12 10 19 20 14
55 65 65 64 55 21 30 24 47 60 14 16 9 6 5 31 12 10 11 12 4 9 6 6 3 6 9 10 19 26 31 25 25 23 27 25 27 24 18 17 18 16 15 14
64 71 28 14 33 60 86 35 12 17 8 10 5 6 3 8 9 6 10 10 6 6 10 10 6 6 19 21 24 28 29 28 26 27 30 27 25 23 21 21 19 16 13 11
44 9 12 83 82 18 10 11 9 9 5 13 12 13 4 3 4 4 5 5 5 4 5 6 5 5 8 24 28 24 22 24 22 19 15 15 18 17 17 19 19 16 14 16
35 58 52 30 8 9 7 7 8 7 7 6 6 7 9 5 5 4 7 4 1 3 6 5 5 6 21 25 22 19 18 16 16 14 14 14 21 16 16 19 21 21 22 22
53 21 10 5 5 4 7 10 5 6 4 8 10 6 6 4 5 5 3 5 5 4 6 5 5 18 18 16 15 17 15 13 13 14 15 15 12 11 12 18 18 19 24 24
12 7 10 7 7 7 5 5 5 7 10 22 29 12 4 4 5 3 5 2 1 1 6 4 6 21 17 14 14 15 18 18 19 20 19 21 24 25 25 25 24 26 32 31
12 12 8 6 2 9 7 13 12 12 16 15 17 12 6 4 5 3 5 3 7 8 4 4 21 15 12 13 11 13 14 14 16 16 19 20 21 23 28 26 27 27 27 26
11 16 7 8 11 14 22 23 18 11 11 10 5 6 6 6 4 8 8 5 5 3 7 27 19 17 14 14 13 14 14 16 18 18 19 20 22 25 27 24 22 22 21 21
9 9 23 20 22 20 19 17 18 14 9 5 6 7 2 3 6 6 7 4 6 24 28 26 19 18 18 18 18 18 16 16 16 16 17 20 21 21 20 20 18 15 15 14
Wind_Direction_850mb
286 286 276 275 269 265 252 252 241 293 236 180 202 219 222 302 301 317 309 312 304 303 329 333 356 132 73 78 356 16 15 269 258 254 223 205 231 263 196 210 187 191 18 272
284 277 275 265 258 242 242 249 262 278 196 202 224 224 256 262 282 289 297 316 237 289 309 335 333 55 113 115 67 86 342 271 268 311 176 210 223 208 225 226 43 235 276 192
281 269 262 258 249 231 232 264 270 219 213 277 278 218 234 246 262 268 270 286 310 303 280 293 279 136 275 207 177 177 103 256 311 296 284 357 307 278 214 219 196 209 242 293
281 263 252 247 238 226 214 209 266 277 261 198 222 253 279 273 255 255 267 280 282 290 291 287 292 314 285 238 177 176 157 272 310 316 312 166 176 293 266 232 216 210 82 263
294 252 240 236 235 216 216 216 244 300 277 286 317 221 261 262 256 259 293 285 279 284 271 264 295 7 5 43 310 286 136 284 303 294 277 250 221 204 237 19 289 241 262 304
281 266 243 226 221 212 210 232 242 311 274 308 298 235 263 272 251 276 277 278 318 315 320 88 40 351 275 215 285 323 317 302 354 286 345 319 300 205 193 188 203 204 189 222
269 268 260 229 218 220 219 215 219 235 277 266 262 300 295 281 263 262 292 294 157 265 324 308 256 268 271 249 228 223 245 312 266 260 314 266 246 300 188 347 33 255 90 63
272 262 255 244 223 218 223 219 207 211 262 264 284 284 277 285 296 304 308 293 230 250 255 275 291 259 268 243 241 231 203 205 269 230 228 285 305 328 41 19 51 62 81 61
267 257 246 238 232 220 222 225 218 226 282 244 254 285 319 328 323 338 264 303 195 84 86 242 188 229 210 240 249 214 200 191 196 299 238 231 234 356 338 203 88 87 80 66
261 253 243 237 234 229 217 225 216 221 243 257 268 268 333 337 352 290 305 298 47 200 180 163 200 241 278 249 257 166 187 183 219 227 244 287 274 318 342 206 128 79 70 66
262 253 245 236 231 227 226 216 217 211 233 249 251 252 283 308 352 140 345 11 65 119 152 205 225 254 264 284 207 276 169 179 191 200 220 250 327 345 51 122 69 71 63 56
263 252 245 235 228 224 223 211 215 213 221 249 254 258 261 262 275 305 325 293 106 294 323 331 331 330 304 26 305 192 224 182 173 160 205 45 38 51 63 82 79 70 69 61
265 256 243 237 229 223 222 215 209 198 219 251 254 251 238 240 245 259 229 257 148 336 7 353 293 278 2 272 272 98 319 316 122 61 57 70 54 59 65 81 64 69 65 60
260 252 243 231 227 215 223 203 201 196 183 238 271 277 250 245 221 233 254 260 272 284 316 221 260 269 327 281 323 352 333 58 334 76 94 84 65 42 50 53 56 60 68 64
256 243 234 220 214 203 206 212 209 205 179 200 247 261 240 248 222 222 234 229 236 213 74 285 253 258 276 224 104 35 20 354 337 77 338 91 82 68 47 53 42 42 60 62
246 230 220 207 201 197 183 157 204 217 197 328 317 284 261 216 217 208 216 236 219 184 153 247 257 250 256 351 79 23 33 51 47 49 32 94 86 65 54 64 62 58 54 53
234 209 201 192 190 194 185 172 215 207 191 202 298 278 221 194 179 202 205 215 213 185 210 233 245 262 5 26 70 21 13 40 35 28 109 62 62 71 64 80 67 91 61 56
170 173 176 172 180 187 187 169 139 174 166 160 232 232 311 175 148 143 193 176 179 204 217 247 251 191 66 78 54 40 23 18 33 30 66 68 81 64 50 53 68 65 59 44
145 148 152 154 162 147 156 141 157 157 143 171 194 194 209 173 127 133 130 162 164 190 215 224 252 42 51 45 38 38 31 25 12 18 37 41 46 40 42 47 48 60 60 57
136 140 129 109 128 129 124 132 122 174 225 220 210 151 297 168 123 126 131 176 180 191 216 173 76 80 69 57 53 46 35 29 26 34 25 22 30 33 68 59 45 44 50 51
132 110 92 133 127 127 111 118 142 163 203 205 187 185 140 77 138 119 149 183 169 208 196 178 90 91 66 67 58 43 29 39 46 52 44 40 43 59 62 45 42 47 61 71
124 123 124 113 95 78 105 143 155 184 185 77 109 132 121 90 94 102 166 161 101 246 130 93 82 79 65 60 56 27 29 32 33 29 29 37 69 63 66 73 74 70 81 96
119 105 73 61 35 138 136 155 161 117 81 143 146 106 84 97 81 90 115 175 199 329 53 67 59 87 71 59 51 36 34 42 43 51 47 51 83 80 75 88 86 91 98 100
74 74 48 27 40 55 8 18 71 96 101 109 110 92 98 85 70 348 89 287 245 339 86 85 90 92 82 62 53 52 57 53 60 64 77 78 81 85 87 93 103 109 106 106
56 33 62 66 131 65 85 76 79 75 101 116 111 87 86 39 77 23 103 132 68 38 80 87 108 105 95 83 64 55 57 59 67 73 81 84 90 95 96 97 103 106 108 105
56 41 53 77 85 36 39 60 64 84 92 101 83 105 73 34 47 51 18 3 57 75 100 126 131 117 116 109 108 101 90 79 81 82 89 93 95 98 101 106 105 105 102 97
56 37 38 64 74 61 46 43 19 61 57 51 47 61 72 164 74 61 14 61 120 117 109 114 113 113 112 109 101 92 89 93 95 90 86 88 91 95 100 97 91 84 80 78